Notices

What's New in latest Release from April 7th, 2021:

- Updated Glossary, including Speed of Maximum Gust, and Total Hourly Precipitation

- Updated national and regional climate services offices contacts and prices information

- Addition of station inventory lists for 1981-2010, 1971-2000, and 1961-1990 Normals.

If you haven't already, please take our survey and provide feedback about our website: https://eccc.sondage-survey.ca/f/LanguageSelection.aspx?s=442ca660-fcf1-47c0-95a9-59707d6fd709

Hourly Data Report for November 13, 2019

CARBERRY CS
MANITOBA
Current Station Operator: ECCC - MSC

49°54'20.900" N
99°21'26.800" W
383.50 m
5010547
71170
WZE

Download Data

Hourly Data (November 2019)
Hourly Data Report for November 13, 2019
TIME
LST
Temp Definition
°C
Dew Point Definition
°C
Rel Hum Definition
%
Precip. Amount Definition
mm

Wind Dir Definition
10's deg

Wind Spd Definition
km/h
Visibility Definition
km
Stn Press Definition
kPa
Hmdx Definition


Wind Chill Definition


Weather Definition


00:00 -5.6 -8.4 81 0.0 30 12   96.19   -11 LegendNANA
01:00 -7.5 -10.4 79 0.0 32 13   96.25   -13 LegendNANA
02:00 -9.4 -11.9 82 0.0 31 11   96.31   -15 LegendNANA
03:00 -10.8 -12.7 85 0.0 33 8   96.35   -15 LegendNANA
04:00 -11.4 -12.6 91 0.0 30 7   96.42   -16 LegendNANA
05:00 -9.2 -11.2 85 0.0 30 7   96.49   -13 LegendNANA
06:00 -8.8 -10.8 86 0.0 30 6   96.59   -12 LegendNANA
07:00 -8.6 -10.5 86 0.0 27 6   96.65   -12 LegendNANA
08:00 -8.3 -10.1 87 0.0 27 5   96.73   -11 LegendNANA
09:00 -7.7 -9.9 84 0.0 36 5   96.84   -10 LegendNANA
10:00 -8.6 -12.0 76 0.0 1 18   96.95   -16 LegendNANA
11:00 -8.2 -12.6 70 0.0 36 15   97.02   -15 LegendNANA
12:00 -7.8 -12.8 67 0.0 36 16   97.05   -14 LegendNANA
13:00 -7.7 -13.1 65 0.0 34 14   97.07   -14 LegendNANA
14:00 -6.6 -12.1 65 0.0 32 13   97.11   -12 LegendNANA
15:00 -7.1 -13.5 60 0.0 31 10   97.15   -12 LegendNANA
16:00 -7.0 -13.2 62 0.0 32 9   97.17   -11 LegendNANA
17:00 -9.7 -13.9 71 0.0 29 9   97.24   -15 LegendNANA
18:00 -11.8 -15.0 77 0.0 28 10   97.27   -17 LegendNANA
19:00 -13.5 -16.2 80 0.0 30 10   97.36   -19 LegendNANA
20:00 -13.6 -16.2 81 0.0 28 8   97.36   -19 LegendNANA
21:00 -15.0 -17.0 84 0.0 27 9   97.37   -21 LegendNANA
22:00 -13.5 -16.0 81 0.0 24 9   97.33   -19 LegendNANA
23:00 -14.7 -17.1 82 0.0 24 8   97.30   -20 LegendNANA

Notes on Data Quality.

Legend

  • E = Estimated
  • M = Missing
  • NA = Not Available*
  • [empty] = Indicates an unobserved value
Date modified: